Погода в Масбате

Филиппины     12°21′28″N   123°37′41″E
темп.,
°C
ветер,
м/с
пор.,
м/с
влажн.,
%
обл.,
%
осадки,
мм/ч
давл.,
гПа
погр.,
м
6 мая, чт
чт623:00+26всв6119198 0.4 1011736
02:00+26всв61090100 0.8 1010673
05:00+25всв5109036 0.4 1011627
08:00+27всв6108581 0.5 1012817
11:00+29св6974100 0.2 1011932
14:00+29св7978100 0.9 1010830
17:00+27св6108653 2.3 1010673
20:00+26всв6108922 2.4 1011636
7 мая, пт
пт723:00+26всв599195 0.2 1012566
02:00+26всв489170 0.4 1010444
05:00+25в479167 0.2 1010345
08:00+28всв487646 0.3 1012784
11:00+30св466799 0.0 1011933
14:00+30св576725 0.0 1009795
17:00+28св697839 0.0 1008595
20:00+27св6108774 0.1 1011589
8 мая, сб
сб823:00+26всв488868 0.1 1011564
02:00+26св588999 0.1 1009525
05:00+26св4888100 0.1 1009491
08:00+27всв5782100 0.1 1011709
11:00+29всв4670100 0.1 1010919
14:00+30св4569100 0.3 1008742
17:00+28св4778100 0.4 1008565
20:00+27св5987100 0.9 1010533
9 мая, вс
вс923:00+26всв59885 0.1 1010520
02:00+26всв478994 0.1 1008436
05:00+26всв4690100 0.1 1009351
08:00+28всв457741 0.1 1010653
11:00+30всв346561 0.0 1009914
14:00+30всв4465100 0.1 1007817
17:00+28всв46766 0.8 1007330
20:00+26всв588448 1.4 1009334
10 мая, пн
пн1023:00+26всв48896 0.8 1009386
02:00+26всв478891 0.8 1008366
05:00+26всв3689100 0.9 1008285
08:00+28всв457910 1.8 1010556
11:00+30всв456715 0.0 1009929
14:00+30всв45655 0.0 1007843
17:00+28всв57795 0.3 1007479
20:00+26всв488425 0.7 1009362